| time (UTC) | temp C | wind direction | speed KPH | gust KPH | rain 1hr cm | rain 24hr cm | rain mn cm | humidity % | barometer mb |
| 20260507043003 | 7 | 202 | 0.0 | 3.2 | 0.00 | 0.00 | 0.00 | 85 | 1012.8 |
| 20260507042718 | 7 | 182 | 0.0 | 3.2 | 0.00 | 0.00 | 0.00 | 85 | 1012.9 |
| 20260507042217 | 7 | 176 | 0.0 | 1.6 | 0.00 | 0.00 | 0.00 | 85 | 1012.7 |
| 20260507041503 | 7 | 185 | 0.0 | 4.8 | 0.00 | 0.00 | 0.00 | 85 | 1012.8 |
| 20260507041003 | 7 | 185 | 0.0 | 4.8 | 0.00 | 0.00 | 0.00 | 84 | 1012.9 |
| 20260507040503 | 7 | 210 | 0.0 | 3.2 | 0.00 | 0.00 | 0.00 | 84 | 1012.9 |
| 20260507040003 | 7 | 210 | 0.0 | 3.2 | 0.00 | 0.00 | 0.00 | 85 | 1012.9 |
| 20260507035503 | 7 | 214 | 0.0 | 4.8 | 0.00 | 0.00 | 0.00 | 85 | 1012.9 |
| 20260507035217 | 7 | 220 | 0.0 | 4.8 | 0.00 | 0.00 | 0.00 | 86 | 1012.7 |
| 20260507034503 | 7 | 216 | 0.0 | 3.2 | 0.00 | 0.00 | 0.00 | 85 | 1012.9 |
| 20260507034003 | 7 | 212 | 0.0 | 3.2 | 0.00 | 0.00 | 0.00 | 85 | 1012.8 |
| 20260507033718 | 7 | 215 | 0.0 | 3.2 | 0.00 | 0.00 | 0.00 | 85 | 1012.9 |
| 20260507033003 | 7 | 198 | 0.0 | 1.6 | 0.00 | 0.00 | 0.00 | 86 | 1012.7 |
| 20260507032504 | 7 | 195 | 0.0 | 4.8 | 0.00 | 0.00 | 0.00 | 86 | 1012.7 |
| 20260507032217 | 7 | 208 | 1.6 | 4.8 | 0.00 | 0.00 | 0.00 | 86 | 1012.9 |
| 20260507031503 | 7 | 223 | 1.6 | 4.8 | 0.00 | 0.00 | 0.00 | 85 | 1012.8 |
| 20260507031003 | 7 | 218 | 0.0 | 3.2 | 0.00 | 0.00 | 0.00 | 85 | 1012.7 |
| 20260507030718 | 7 | 217 | 0.0 | 3.2 | 0.00 | 0.00 | 0.00 | 85 | 1012.8 |
| 20260507030217 | 7 | 229 | 0.0 | 3.2 | 0.00 | 0.00 | 0.00 | 86 | 1012.8 |
| 20260507025503 | 7 | 226 | 1.6 | 3.2 | 0.00 | 0.00 | 0.00 | 86 | 1012.7 |
| 20260507025003 | 7 | 216 | 0.0 | 3.2 | 0.00 | 0.00 | 0.00 | 86 | 1012.8 |
| 20260507024503 | 7 | 205 | 0.0 | 1.6 | 0.00 | 0.00 | 0.00 | 85 | 1012.7 |
| 20260507024003 | 7 | 197 | 0.0 | 3.2 | 0.00 | 0.00 | 0.00 | 86 | 1012.6 |
| 20260507023503 | 7 | 185 | 0.0 | 3.2 | 0.00 | 0.00 | 0.00 | 86 | 1012.6 |
| 20260507023003 | 7 | 197 | 0.0 | 1.6 | 0.00 | 0.00 | 0.00 | 85 | 1012.7 |
| 20260507022503 | 7 | 212 | 0.0 | 1.6 | 0.00 | 0.00 | 0.00 | 85 | 1012.5 |
| 20260507022003 | 7 | 217 | 0.0 | 1.6 | 0.00 | 0.00 | 0.00 | 84 | 1012.6 |
| 20260507021503 | 8 | 214 | 0.0 | 1.6 | 0.00 | 0.00 | 0.00 | 84 | 1012.5 |
| 20260507021003 | 8 | 219 | 0.0 | 1.6 | 0.00 | 0.00 | 0.00 | 84 | 1012.6 |
| 20260507020503 | 8 | 221 | 0.0 | 1.6 | 0.00 | 0.00 | 0.00 | 84 | 1012.8 |
| 20260507020218 | 8 | 221 | 0.0 | 1.6 | 0.00 | 0.00 | 0.00 | 84 | 1012.6 |
| 20260507015503 | 8 | 200 | 0.0 | 3.2 | 0.00 | 0.00 | 0.00 | 83 | 1012.8 |
| 20260507015003 | 8 | 198 | 0.0 | 3.2 | 0.00 | 0.00 | 0.00 | 83 | 1012.8 |
| 20260507014503 | 8 | 199 | 0.0 | 3.2 | 0.00 | 0.00 | 0.00 | 84 | 1012.5 |
| 20260507014003 | 8 | 200 | 1.6 | 3.2 | 0.00 | 0.00 | 0.00 | 85 | 1012.8 |
| 20260507013503 | 7 | 194 | 1.6 | 3.2 | 0.00 | 0.00 | 0.00 | 85 | 1013.0 |
| 20260507013003 | 8 | 193 | 1.6 | 4.8 | 0.00 | 0.00 | 0.00 | 85 | 1012.9 |
| 20260507012503 | 7 | 183 | 1.6 | 6.4 | 0.00 | 0.00 | 0.00 | 85 | 1013.0 |
| 20260507012003 | 8 | 177 | 1.6 | 6.4 | 0.00 | 0.00 | 0.00 | 83 | 1013.1 |
| 20260507011503 | 8 | 205 | 0.0 | 3.2 | 0.00 | 0.00 | 0.00 | 83 | 1013.0 |
| 20260507010717 | 8 | 218 | 0.0 | 1.6 | 0.00 | 0.00 | 0.00 | 84 | 1013.2 |
| 20260507010003 | 8 | 219 | 0.0 | 3.2 | 0.00 | 0.00 | 0.00 | 83 | 1013.1 |
| 20260507005503 | 8 | 219 | 1.6 | 3.2 | 0.00 | 0.00 | 0.00 | 83 | 1013.2 |
| 20260507005003 | 8 | 222 | 1.6 | 3.2 | 0.00 | 0.00 | 0.00 | 83 | 1013.3 |
| 20260507004503 | 7 | 220 | 1.6 | 3.2 | 0.00 | 0.00 | 0.00 | 84 | 1013.3 |
| 20260507004003 | 8 | 212 | 1.6 | 3.2 | 0.00 | 0.00 | 0.00 | 84 | 1013.3 |
| 20260507003717 | 8 | 208 | 1.6 | 3.2 | 0.00 | 0.00 | 0.00 | 84 | 1013.3 |
| 20260507003003 | 8 | 213 | 1.6 | 3.2 | 0.00 | 0.00 | 0.00 | 83 | 1013.4 |
| 20260507002503 | 8 | 218 | 1.6 | 3.2 | 0.00 | 0.00 | 0.00 | 82 | 1013.6 |
| 20260507002218 | 8 | 220 | 1.6 | 3.2 | 0.00 | 0.00 | 0.00 | 82 | 1013.5 |
| 20260507001503 | 8 | 230 | 3.2 | 4.8 | 0.00 | 0.00 | 0.00 | 81 | 1013.7 |
| 20260507001003 | 8 | 227 | 1.6 | 4.8 | 0.00 | 0.00 | 0.00 | 82 | 1013.6 |
| 20260507000503 | 8 | 223 | 1.6 | 3.2 | 0.00 | 0.00 | 0.00 | 82 | 1013.5 |
| 20260507000003 | 8 | 214 | 0.0 | 3.2 | 0.00 | 0.00 | 0.00 | 83 | 1013.6 |
| 20260506235503 | 8 | 202 | 0.0 | 1.6 | 0.00 | 0.00 | 0.00 | 83 | 1013.7 |
| 20260506235003 | 8 | 193 | 0.0 | 3.2 | 0.00 | 0.00 | 0.00 | 82 | 1013.4 |
| 20260506234503 | 8 | 198 | 0.0 | 3.2 | 0.00 | 0.00 | 0.00 | 82 | 1013.7 |
| 20260506234003 | 8 | 204 | 0.0 | 1.6 | 0.00 | 0.00 | 0.00 | 82 | 1013.7 |
| 20260506233503 | 8 | 213 | 0.0 | 1.6 | 0.00 | 0.00 | 0.00 | 80 | 1013.6 |
| 20260506233218 | 9 | 215 | 0.0 | 1.6 | 0.00 | 0.00 | 0.00 | 81 | 1013.8 |
| 20260506232718 | 8 | 217 | 0.0 | 1.6 | 0.00 | 0.00 | 0.00 | 81 | 1014.0 |
| 20260506232217 | 9 | 0 | 0.0 | 0.0 | 0.00 | 0.00 | 0.00 | 80 | 1013.9 |
| 20260506231503 | 9 | 185 | 0.0 | 1.6 | 0.00 | 0.00 | 0.00 | 80 | 1013.7 |
| 20260506231003 | 9 | 192 | 0.0 | 1.6 | 0.00 | 0.00 | 0.00 | 80 | 1013.9 |
| 20260506230718 | 9 | 196 | 0.0 | 1.6 | 0.00 | 0.00 | 0.00 | 80 | 1013.8 |
| 20260506230003 | 10 | 200 | 0.0 | 3.2 | 0.00 | 0.00 | 0.00 | 79 | 1013.8 |
| 20260506225503 | 10 | 206 | 0.0 | 3.2 | 0.00 | 0.00 | 0.00 | 78 | 1013.7 |
| 20260506225003 | 10 | 225 | 0.0 | 1.6 | 0.00 | 0.00 | 0.00 | 77 | 1013.9 |
| 20260506224503 | 10 | 0 | 0.0 | 0.0 | 0.00 | 0.00 | 0.00 | 77 | 1013.9 |
| 20260506224003 | 10 | 191 | 0.0 | 1.6 | 0.00 | 0.00 | 0.00 | 78 | 1014.0 |
| 20260506223503 | 10 | 192 | 0.0 | 1.6 | 0.00 | 0.00 | 0.00 | 78 | 1014.0 |
| 20260506223003 | 10 | 198 | 0.0 | 1.6 | 0.00 | 0.00 | 0.00 | 76 | 1014.0 |
| 20260506222503 | 10 | 217 | 0.0 | 3.2 | 0.00 | 0.00 | 0.00 | 76 | 1013.9 |
| 20260506222003 | 10 | 217 | 1.6 | 3.2 | 0.00 | 0.00 | 0.00 | 76 | 1014.0 |
| 20260506221504 | 10 | 218 | 1.6 | 3.2 | 0.00 | 0.00 | 0.00 | 74 | 1013.9 |
| 20260506221003 | 11 | 0 | 0.0 | 0.0 | 0.00 | 0.00 | 0.00 | 74 | 1013.9 |
| 20260506220503 | 11 | 224 | 0.0 | 3.2 | 0.00 | 0.00 | 0.00 | 74 | 1014.0 |
| 20260506220003 | 11 | 224 | 0.0 | 3.2 | 0.00 | 0.00 | 0.00 | 73 | 1013.9 |
| 20260506215503 | 11 | 218 | 0.0 | 3.2 | 0.00 | 0.00 | 0.00 | 73 | 1014.0 |
| 20260506215003 | 11 | 212 | 0.0 | 1.6 | 0.00 | 0.00 | 0.00 | 74 | 1014.0 |
| 20260506214503 | 11 | 211 | 0.0 | 1.6 | 0.00 | 0.00 | 0.00 | 74 | 1013.8 |
| 20260506214003 | 11 | 188 | 0.0 | 3.2 | 0.00 | 0.00 | 0.00 | 72 | 1013.7 |
| 20260506213718 | 11 | 183 | 0.0 | 3.2 | 0.00 | 0.00 | 0.00 | 72 | 1013.7 |
| 20260506213003 | 11 | 157 | 3.2 | 4.8 | 0.00 | 0.00 | 0.00 | 71 | 1013.8 |
| 20260506212503 | 11 | 151 | 3.2 | 4.8 | 0.00 | 0.00 | 0.00 | 70 | 1013.8 |
| 20260506212217 | 11 | 156 | 1.6 | 4.8 | 0.00 | 0.00 | 0.00 | 70 | 1014.0 |
| 20260506211503 | 11 | 181 | 0.0 | 3.2 | 0.00 | 0.00 | 0.00 | 70 | 1013.9 |
| 20260506211003 | 11 | 201 | 0.0 | 1.6 | 0.00 | 0.00 | 0.00 | 71 | 1013.7 |
| 20260506210503 | 12 | 187 | 0.0 | 3.2 | 0.00 | 0.00 | 0.00 | 70 | 1013.9 |
| 20260506210003 | 12 | 188 | 1.6 | 3.2 | 0.00 | 0.00 | 0.00 | 69 | 1013.7 |
| 20260506205503 | 12 | 186 | 1.6 | 3.2 | 0.00 | 0.00 | 0.00 | 68 | 1013.7 |
| 20260506205003 | 13 | 168 | 1.6 | 3.2 | 0.00 | 0.00 | 0.00 | 67 | 1013.7 |
| 20260506204503 | 13 | 169 | 1.6 | 3.2 | 0.00 | 0.00 | 0.00 | 66 | 1013.6 |
| 20260506204003 | 13 | 188 | 0.0 | 3.2 | 0.00 | 0.00 | 0.00 | 67 | 1013.6 |
| 20260506203503 | 13 | 188 | 0.0 | 3.2 | 0.00 | 0.00 | 0.00 | 65 | 1013.6 |
| 20260506203003 | 14 | 257 | 0.0 | 1.6 | 0.00 | 0.00 | 0.00 | 63 | 1013.4 |
| 20260506202503 | 15 | 246 | 0.0 | 1.6 | 0.00 | 0.00 | 0.00 | 59 | 1013.4 |
| 20260506202218 | 15 | 251 | 0.0 | 1.6 | 0.00 | 0.00 | 0.00 | 58 | 1013.3 |
| 20260506201503 | 15 | 250 | 0.0 | 1.6 | 0.00 | 0.00 | 0.00 | 58 | 1013.2 |
| 20260506201003 | 15 | 285 | 0.0 | 4.8 | 0.00 | 0.00 | 0.00 | 58 | 1013.3 |
| 20260506200503 | 15 | 314 | 1.6 | 4.8 | 0.00 | 0.00 | 0.00 | 56 | 1013.0 |
| 20260506200003 | 15 | 288 | 1.6 | 9.7 | 0.00 | 0.00 | 0.00 | 56 | 1013.0 |
| 20260506195503 | 15 | 267 | 3.2 | 9.7 | 0.00 | 0.00 | 0.00 | 56 | 1013.0 |
| 20260506195003 | 15 | 266 | 3.2 | 6.4 | 0.00 | 0.00 | 0.00 | 56 | 1013.0 |
| 20260506194503 | 15 | 263 | 4.8 | 11.3 | 0.00 | 0.00 | 0.00 | 55 | 1012.9 |
| 20260506194003 | 16 | 264 | 4.8 | 11.3 | 0.00 | 0.00 | 0.00 | 55 | 1012.8 |
| 20260506193717 | 16 | 270 | 4.8 | 11.3 | 0.00 | 0.00 | 0.00 | 55 | 1012.7 |
| 20260506193003 | 16 | 265 | 6.4 | 11.3 | 0.00 | 0.00 | 0.00 | 55 | 1012.6 |
| 20260506192504 | 16 | 266 | 6.4 | 11.3 | 0.00 | 0.00 | 0.00 | 54 | 1012.8 |
| 20260506192218 | 16 | 265 | 6.4 | 11.3 | 0.00 | 0.00 | 0.00 | 54 | 1012.6 |
| 20260506191503 | 16 | 263 | 8.0 | 16.1 | 0.00 | 0.00 | 0.00 | 53 | 1012.7 |
| 20260506191003 | 16 | 269 | 9.7 | 17.7 | 0.00 | 0.00 | 0.00 | 53 | 1012.6 |
| 20260506190503 | 17 | 262 | 9.7 | 17.7 | 0.00 | 0.00 | 0.00 | 52 | 1012.5 |
| 20260506190004 | 17 | 257 | 9.7 | 17.7 | 0.00 | 0.00 | 0.00 | 51 | 1012.5 |
| 20260506185717 | 17 | 254 | 9.7 | 17.7 | 0.00 | 0.00 | 0.00 | 50 | 1012.2 |
| 20260506185003 | 18 | 268 | 9.7 | 20.9 | 0.00 | 0.00 | 0.00 | 49 | 1012.2 |
| 20260506184503 | 18 | 277 | 11.3 | 20.9 | 0.00 | 0.00 | 0.00 | 48 | 1012.3 |
| 20260506184003 | 18 | 286 | 8.0 | 20.9 | 0.00 | 0.00 | 0.00 | 46 | 1012.1 |
| 20260506183503 | 19 | 287 | 6.4 | 12.9 | 0.00 | 0.00 | 0.00 | 40 | 1012.1 |
| 20260506183003 | 20 | 276 | 4.8 | 12.9 | 0.00 | 0.00 | 0.00 | 40 | 1012.1 |
| 20260506182716 | 20 | 279 | 4.8 | 12.9 | 0.00 | 0.00 | 0.00 | 39 | 1011.9 |
| 20260506182003 | 20 | 288 | 6.4 | 11.3 | 0.00 | 0.00 | 0.00 | 39 | 1012.0 |
| 20260506181503 | 20 | 284 | 6.4 | 14.5 | 0.00 | 0.00 | 0.00 | 38 | 1012.0 |
| 20260506181003 | 20 | 280 | 6.4 | 14.5 | 0.00 | 0.00 | 0.00 | 38 | 1012.0 |
| 20260506180503 | 20 | 289 | 8.0 | 16.1 | 0.00 | 0.00 | 0.00 | 38 | 1012.0 |
| 20260506180004 | 20 | 279 | 6.4 | 16.1 | 0.00 | 0.00 | 0.00 | 38 | 1011.9 |
| 20260506175503 | 20 | 265 | 6.4 | 14.5 | 0.00 | 0.00 | 0.00 | 37 | 1012.1 |
| 20260506175003 | 20 | 276 | 6.4 | 11.3 | 0.00 | 0.00 | 0.00 | 37 | 1012.1 |
| 20260506174503 | 20 | 282 | 6.4 | 11.3 | 0.00 | 0.00 | 0.00 | 37 | 1012.2 |
| 20260506174003 | 20 | 271 | 6.4 | 12.9 | 0.00 | 0.00 | 0.00 | 37 | 1012.2 |
| 20260506173503 | 20 | 275 | 8.0 | 16.1 | 0.00 | 0.00 | 0.00 | 37 | 1012.2 |
| 20260506173003 | 20 | 282 | 9.7 | 16.1 | 0.00 | 0.00 | 0.00 | 37 | 1012.1 |
| 20260506172503 | 20 | 279 | 6.4 | 16.1 | 0.00 | 0.00 | 0.00 | 37 | 1012.2 |
| 20260506172003 | 21 | 274 | 4.8 | 11.3 | 0.00 | 0.00 | 0.00 | 35 | 1012.2 |
| 20260506171503 | 21 | 281 | 4.8 | 11.3 | 0.00 | 0.00 | 0.00 | 36 | 1012.3 |
| 20260506171004 | 21 | 268 | 4.8 | 11.3 | 0.00 | 0.00 | 0.00 | 36 | 1012.2 |
| 20260506170503 | 21 | 277 | 6.4 | 12.9 | 0.00 | 0.00 | 0.00 | 36 | 1012.2 |
| 20260506170217 | 21 | 279 | 8.0 | 12.9 | 0.00 | 0.00 | 0.00 | 35 | 1012.3 |
| 20260506165718 | 21 | 279 | 6.4 | 14.5 | 0.00 | 0.00 | 0.00 | 35 | 1012.2 |
| 20260506165003 | 21 | 302 | 4.8 | 11.3 | 0.00 | 0.00 | 0.00 | 35 | 1012.2 |
| 20260506164503 | 21 | 292 | 4.8 | 11.3 | 0.00 | 0.00 | 0.00 | 35 | 1012.3 |
| 20260506164003 | 21 | 259 | 4.8 | 11.3 | 0.00 | 0.00 | 0.00 | 35 | 1012.4 |
| 20260506163503 | 21 | 258 | 3.2 | 11.3 | 0.00 | 0.00 | 0.00 | 36 | 1012.3 |
| 20260506163003 | 21 | 277 | 3.2 | 11.3 | 0.00 | 0.00 | 0.00 | 35 | 1012.3 |
| 20260506162718 | 21 | 284 | 3.2 | 6.4 | 0.00 | 0.00 | 0.00 | 33 | 1012.4 |
| 20260506162003 | 21 | 310 | 3.2 | 9.7 | 0.00 | 0.00 | 0.00 | 34 | 1012.6 |
| 20260506161503 | 21 | 286 | 3.2 | 9.7 | 0.00 | 0.00 | 0.00 | 34 | 1012.4 |
| 20260506161003 | 21 | 290 | 6.4 | 14.5 | 0.00 | 0.00 | 0.00 | 35 | 1012.5 |
| 20260506160503 | 21 | 293 | 6.4 | 14.5 | 0.00 | 0.00 | 0.00 | 35 | 1012.4 |
| 20260506160003 | 21 | 279 | 6.4 | 14.5 | 0.00 | 0.00 | 0.00 | 35 | 1012.5 |
| 20260506155503 | 21 | 280 | 4.8 | 12.9 | 0.00 | 0.00 | 0.00 | 35 | 1012.5 |
| 20260506155003 | 21 | 289 | 4.8 | 11.3 | 0.00 | 0.00 | 0.00 | 35 | 1012.6 |
| 20260506154503 | 20 | 278 | 6.4 | 16.1 | 0.00 | 0.00 | 0.00 | 35 | 1012.6 |
| 20260506154003 | 21 | 292 | 6.4 | 16.1 | 0.00 | 0.00 | 0.00 | 36 | 1012.8 |
| 20260506153503 | 21 | 304 | 6.4 | 14.5 | 0.00 | 0.00 | 0.00 | 35 | 1012.6 |
| 20260506153003 | 21 | 290 | 6.4 | 14.5 | 0.00 | 0.00 | 0.00 | 35 | 1012.6 |
| 20260506152503 | 21 | 295 | 4.8 | 14.5 | 0.00 | 0.00 | 0.00 | 34 | 1012.7 |
| 20260506152218 | 21 | 298 | 6.4 | 14.5 | 0.00 | 0.00 | 0.00 | 35 | 1012.8 |
| 20260506151503 | 21 | 284 | 6.4 | 14.5 | 0.00 | 0.00 | 0.00 | 35 | 1012.8 |
| 20260506151003 | 20 | 280 | 6.4 | 14.5 | 0.00 | 0.00 | 0.00 | 35 | 1012.8 |
| 20260506150503 | 21 | 293 | 3.2 | 11.3 | 0.00 | 0.00 | 0.00 | 34 | 1013.1 |
| 20260506150003 | 22 | 282 | 4.8 | 11.3 | 0.00 | 0.00 | 0.00 | 33 | 1013.0 |
| 20260506145503 | 21 | 260 | 6.4 | 16.1 | 0.00 | 0.00 | 0.00 | 33 | 1013.1 |
| 20260506145218 | 21 | 257 | 8.0 | 17.7 | 0.00 | 0.00 | 0.00 | 35 | 1012.9 |
| 20260506144503 | 21 | 268 | 6.4 | 17.7 | 0.00 | 0.00 | 0.00 | 34 | 1013.2 |
| 20260506144003 | 21 | 296 | 6.4 | 16.1 | 0.00 | 0.00 | 0.00 | 34 | 1013.3 |
| 20260506143503 | 21 | 292 | 6.4 | 16.1 | 0.00 | 0.00 | 0.00 | 33 | 1013.2 |
| 20260506143218 | 20 | 285 | 8.0 | 16.1 | 0.00 | 0.00 | 0.00 | 35 | 1013.3 |
| 20260506142503 | 21 | 286 | 4.8 | 12.9 | 0.00 | 0.00 | 0.00 | 34 | 1013.5 |
| 20260506142218 | 21 | 286 | 4.8 | 11.3 | 0.00 | 0.00 | 0.00 | 34 | 1013.5 |
| 20260506141717 | 20 | 284 | 4.8 | 11.3 | 0.00 | 0.00 | 0.00 | 34 | 1013.5 |
| 20260506141003 | 20 | 273 | 6.4 | 12.9 | 0.00 | 0.00 | 0.00 | 34 | 1013.3 |
| 20260506140503 | 20 | 257 | 6.4 | 12.9 | 0.00 | 0.00 | 0.00 | 33 | 1013.7 |
| 20260506140218 | 20 | 262 | 6.4 | 11.3 | 0.00 | 0.00 | 0.00 | 34 | 1013.6 |
| 20260506135503 | 20 | 299 | 4.8 | 11.3 | 0.00 | 0.00 | 0.00 | 33 | 1013.6 |
| 20260506135218 | 21 | 321 | 4.8 | 16.1 | 0.00 | 0.00 | 0.00 | 34 | 1013.6 |
| 20260506134503 | 20 | 300 | 6.4 | 16.1 | 0.00 | 0.00 | 0.00 | 34 | 1013.7 |
| 20260506134003 | 20 | 284 | 6.4 | 12.9 | 0.00 | 0.00 | 0.00 | 34 | 1013.7 |
| 20260506133503 | 20 | 268 | 8.0 | 17.7 | 0.00 | 0.00 | 0.00 | 35 | 1013.8 |
| 20260506133003 | 20 | 261 | 9.7 | 17.7 | 0.00 | 0.00 | 0.00 | 35 | 1013.6 |
| 20260506132503 | 20 | 261 | 8.0 | 16.1 | 0.00 | 0.00 | 0.00 | 34 | 1013.8 |
| 20260506132218 | 20 | 255 | 6.4 | 16.1 | 0.00 | 0.00 | 0.00 | 35 | 1013.8 |
| 20260506131718 | 21 | 260 | 4.8 | 14.5 | 0.00 | 0.00 | 0.00 | 33 | 1014.0 |
| 20260506131003 | 20 | 300 | 6.4 | 16.1 | 0.00 | 0.00 | 0.00 | 35 | 1013.8 |
| 20260506130503 | 20 | 291 | 6.4 | 16.1 | 0.00 | 0.00 | 0.00 | 34 | 1013.9 |
| 20260506130003 | 20 | 270 | 6.4 | 12.9 | 0.00 | 0.00 | 0.00 | 35 | 1013.9 |
| 20260506125503 | 20 | 244 | 4.8 | 12.9 | 0.00 | 0.00 | 0.00 | 35 | 1013.8 |
| 20260506125003 | 21 | 211 | 3.2 | 9.7 | 0.00 | 0.00 | 0.00 | 33 | 1013.9 |
| 20260506124503 | 20 | 229 | 3.2 | 9.7 | 0.00 | 0.00 | 0.00 | 35 | 1013.9 |
| 20260506124003 | 19 | 255 | 6.4 | 16.1 | 0.00 | 0.00 | 0.00 | 34 | 1014.0 |
| 20260506123716 | 20 | 249 | 6.4 | 16.1 | 0.00 | 0.00 | 0.00 | 35 | 1014.2 |
| 20260506123003 | 20 | 270 | 6.4 | 12.9 | 0.00 | 0.00 | 0.00 | 34 | 1014.1 |
| 20260506122503 | 20 | 271 | 8.0 | 16.1 | 0.00 | 0.00 | 0.00 | 35 | 1014.2 |
| 20260506122003 | 20 | 254 | 6.4 | 16.1 | 0.00 | 0.00 | 0.00 | 35 | 1014.1 |
| 20260506121718 | 20 | 227 | 4.8 | 12.9 | 0.00 | 0.00 | 0.00 | 34 | 1014.1 |
| 20260506121217 | 21 | 73 | 3.2 | 14.5 | 0.00 | 0.00 | 0.00 | 32 | 1014.3 |
| 20260506120718 | 21 | 344 | 3.2 | 14.5 | 0.00 | 0.00 | 0.00 | 32 | 1014.2 |
| 20260506120217 | 20 | 283 | 1.6 | 9.7 | 0.00 | 0.00 | 0.00 | 32 | 1014.3 |
| 20260506115503 | 20 | 207 | 1.6 | 6.4 | 0.00 | 0.00 | 0.00 | 34 | 1014.4 |
| 20260506115003 | 19 | 207 | 1.6 | 6.4 | 0.00 | 0.00 | 0.00 | 35 | 1014.4 |
| 20260506114718 | 20 | 267 | 1.6 | 6.4 | 0.00 | 0.00 | 0.00 | 34 | 1014.3 |
| 20260506114003 | 19 | 309 | 3.2 | 6.4 | 0.00 | 0.00 | 0.00 | 35 | 1014.6 |
| 20260506113503 | 20 | 320 | 3.2 | 11.3 | 0.00 | 0.00 | 0.00 | 34 | 1014.5 |
| 20260506113003 | 20 | 303 | 3.2 | 11.3 | 0.00 | 0.00 | 0.00 | 34 | 1014.6 |
| 20260506112503 | 19 | 279 | 4.8 | 9.7 | 0.00 | 0.00 | 0.00 | 35 | 1014.4 |
| 20260506112003 | 19 | 257 | 4.8 | 9.7 | 0.00 | 0.00 | 0.00 | 35 | 1014.3 |
| 20260506111503 | 19 | 254 | 3.2 | 9.7 | 0.00 | 0.00 | 0.00 | 36 | 1014.5 |
| 20260506111003 | 20 | 297 | 4.8 | 12.9 | 0.00 | 0.00 | 0.00 | 35 | 1014.5 |
| 20260506110718 | 20 | 313 | 4.8 | 12.9 | 0.00 | 0.00 | 0.00 | 34 | 1014.5 |
| 20260506110004 | 20 | 4 | 4.8 | 12.9 | 0.00 | 0.00 | 0.00 | 36 | 1014.3 |
| 20260506105503 | 19 | 46 | 4.8 | 12.9 | 0.00 | 0.00 | 0.00 | 36 | 1014.5 |
| 20260506105217 | 19 | 48 | 3.2 | 12.9 | 0.00 | 0.00 | 0.00 | 36 | 1014.6 |
| 20260506104503 | 20 | 40 | 3.2 | 12.9 | 0.00 | 0.00 | 0.00 | 35 | 1014.7 |
| 20260506104003 | 20 | 353 | 3.2 | 12.9 | 0.00 | 0.00 | 0.00 | 35 | 1014.7 |
| 20260506103718 | 20 | 338 | 4.8 | 14.5 | 0.00 | 0.00 | 0.00 | 36 | 1014.7 |
| 20260506103003 | 19 | 330 | 3.2 | 14.5 | 0.00 | 0.00 | 0.00 | 36 | 1014.6 |
| 20260506102503 | 18 | 168 | 1.6 | 4.8 | 0.00 | 0.00 | 0.00 | 36 | 1014.7 |
| 20260506102219 | 18 | 170 | 1.6 | 9.7 | 0.00 | 0.00 | 0.00 | 36 | 1014.7 |
| 20260506101503 | 19 | 340 | 3.2 | 11.3 | 0.00 | 0.00 | 0.00 | 35 | 1014.8 |
| 20260506101003 | 18 | 2 | 3.2 | 11.3 | 0.00 | 0.00 | 0.00 | 36 | 1014.7 |
| 20260506100503 | 18 | 110 | 3.2 | 9.7 | 0.00 | 0.00 | 0.00 | 37 | 1014.8 |
| 20260506100004 | 18 | 264 | 3.2 | 9.7 | 0.00 | 0.00 | 0.00 | 41 | 1014.6 |
| 20260506095503 | 17 | 260 | 4.8 | 9.7 | 0.00 | 0.00 | 0.00 | 42 | 1014.8 |
| 20260506095003 | 17 | 256 | 6.4 | 9.7 | 0.00 | 0.00 | 0.00 | 43 | 1015.0 |
| 20260506094503 | 17 | 268 | 4.8 | 9.7 | 0.00 | 0.00 | 0.00 | 42 | 1014.9 |
| 20260506094003 | 17 | 260 | 3.2 | 9.7 | 0.00 | 0.00 | 0.00 | 42 | 1014.8 |
| 20260506093717 | 18 | 245 | 1.6 | 4.8 | 0.00 | 0.00 | 0.00 | 41 | 1014.7 |
| 20260506093218 | 18 | 200 | 1.6 | 6.4 | 0.00 | 0.00 | 0.00 | 40 | 1014.9 |
| 20260506092503 | 17 | 191 | 3.2 | 6.4 | 0.00 | 0.00 | 0.00 | 42 | 1014.8 |
| 20260506092003 | 17 | 205 | 1.6 | 4.8 | 0.00 | 0.00 | 0.00 | 46 | 1014.8 |
| 20260506091503 | 17 | 235 | 1.6 | 6.4 | 0.00 | 0.00 | 0.00 | 46 | 1014.7 |
| 20260506091003 | 17 | 260 | 3.2 | 6.4 | 0.00 | 0.00 | 0.00 | 47 | 1014.8 |
| 20260506090503 | 16 | 257 | 3.2 | 9.7 | 0.00 | 0.00 | 0.00 | 49 | 1014.9 |
| 20260506090003 | 16 | 240 | 3.2 | 9.7 | 0.00 | 0.00 | 0.00 | 49 | 1014.8 |
| 20260506085503 | 17 | 217 | 1.6 | 4.8 | 0.00 | 0.00 | 0.00 | 48 | 1014.9 |
| 20260506085003 | 16 | 221 | 1.6 | 4.8 | 0.00 | 0.00 | 0.00 | 50 | 1014.9 |
| 20260506084717 | 16 | 231 | 1.6 | 4.8 | 0.00 | 0.00 | 0.00 | 50 | 1014.9 |
| 20260506084218 | 16 | 252 | 1.6 | 4.8 | 0.00 | 0.00 | 0.00 | 50 | 1015.0 |
| 20260506083503 | 17 | 228 | 1.6 | 3.2 | 0.00 | 0.00 | 0.00 | 49 | 1014.7 |
| 20260506083218 | 16 | 227 | 1.6 | 4.8 | 0.00 | 0.00 | 0.00 | 50 | 1014.8 |
| 20260506082503 | 16 | 188 | 1.6 | 4.8 | 0.00 | 0.00 | 0.00 | 51 | 1014.9 |
| 20260506082003 | 16 | 259 | 1.6 | 4.8 | 0.00 | 0.00 | 0.00 | 50 | 1014.7 |
| 20260506081503 | 16 | 253 | 1.6 | 4.8 | 0.00 | 0.00 | 0.00 | 51 | 1015.1 |
| 20260506081003 | 16 | 217 | 1.6 | 4.8 | 0.00 | 0.00 | 0.00 | 52 | 1014.8 |
| 20260506080503 | 15 | 216 | 1.6 | 4.8 | 0.00 | 0.00 | 0.00 | 54 | 1014.9 |
| 20260506073503 | 13 | 159 | 0.0 | 3.2 | 0.00 | 0.00 | 0.00 | 68 | 1014.8 |
| 20260506073217 | 12 | 157 | 0.0 | 3.2 | 0.00 | 0.00 | 0.00 | 69 | 1014.7 |
| 20260506072503 | 12 | 186 | 0.0 | 1.6 | 0.00 | 0.00 | 0.00 | 72 | 1014.8 |
| 20260506072003 | 11 | 182 | 0.0 | 1.6 | 0.00 | 0.00 | 0.00 | 74 | 1014.9 |
| 20260506071716 | 11 | 192 | 0.0 | 1.6 | 0.00 | 0.00 | 0.00 | 74 | 1014.9 |
| 20260506071003 | 11 | 245 | 0.0 | 1.6 | 0.00 | 0.00 | 0.00 | 75 | 1015.0 |
| 20260506070503 | 10 | 0 | 0.0 | 0.0 | 0.00 | 0.00 | 0.00 | 77 | 1015.0 |
| 20260506070217 | 10 | 0 | 0.0 | 0.0 | 0.00 | 0.00 | 0.00 | 77 | 1015.0 |
| 20260506062503 | 8 | 0 | 0.0 | 0.0 | 0.00 | 0.00 | 0.00 | 83 | 1015.0 |
| 20260506062217 | 7 | 0 | 0.0 | 0.0 | 0.00 | 0.00 | 0.00 | 84 | 1015.0 |
| 20260506061503 | 7 | 0 | 0.0 | 0.0 | 0.00 | 0.00 | 0.00 | 84 | 1014.9 |
| 20260506061003 | 7 | 0 | 0.0 | 0.0 | 0.00 | 0.00 | 0.00 | 84 | 1015.0 |
| 20260506060503 | 7 | 0 | 0.0 | 0.0 | 0.00 | 0.00 | 0.00 | 85 | 1014.8 |
| 20260506060217 | 7 | 0 | 0.0 | 0.0 | 0.00 | 0.00 | 0.00 | 85 | 1014.9 |
| 20260506051003 | 5 | 0 | 0.0 | 0.0 | 0.00 | 0.00 | 0.00 | 91 | 1014.8 |
| 20260506050503 | 5 | 0 | 0.0 | 0.0 | 0.00 | 0.00 | 0.00 | 91 | 1014.9 |
| 20260506045003 | 5 | 0 | 0.0 | 0.0 | 0.00 | 0.00 | 0.00 | 90 | 1014.7 |
| 20260506044503 | 5 | 0 | 0.0 | 0.0 | 0.00 | 0.00 | 0.00 | 90 | 1014.7 |
| 20260506044003 | 5 | 0 | 0.0 | 0.0 | 0.00 | 0.00 | 0.00 | 90 | 1014.9 |
| 20260506043503 | 5 | 0 | 0.0 | 0.0 | 0.00 | 0.00 | 0.00 | 90 | 1014.8 |